AirNav   Air Wisconsin Up To $57,000 Bonus
 
 1286 users online  

51R Madisonville Municipal Airport
Madisonville, Texas, USA

GOING TO MADISONVILLE?


FAA INFORMATION EFFECTIVE 09 SEPTEMBER 2021

Location

FAA Identifier: 51R
Lat/Long: 30-54-46.2000N 095-57-07.2000W
30-54.770000N 095-57.120000W
30.9128333,-95.9520000
(estimated)
Elevation: 286.7 ft. / 87.4 m (surveyed)
Variation: 07E (1980)
From city: 3 miles SW of MADISONVILLE, TX
Time zone: UTC -5 (UTC -6 during Standard Time)
Zip code: 77864

Airport Operations

Airport use: Open to the public
Activation date: 05/1979
Control tower: no
ARTCC: HOUSTON CENTER
FSS: MONTGOMERY COUNTY FLIGHT SERVICE STATION
NOTAMs facility: CXO (NOTAM-D service available)
Attendance: UNATNDD
Wind indicator: lighted
Segmented circle: yes
Lights: SS-SR
Beacon: white-green (lighted land airport)
Operates sunset to sunrise.

Airport Communications

CTAF: 122.9
  • APCH/DEP CTL SVC PRVDD BY HOUSTON ATRCC (ZHU) ON 134.8/269.6 (COLLEGE STAION RCAG)

Nearby radio navigation aids

VOR radial/distance  VOR name  Freq  Var
LOAr168/12.7LEONA VORTAC110.8008E
CLLr045/30.4COLLEGE STATION VORTAC113.3008E
TNVr000/37.9NAVASOTA VOR/DME115.9008E

 
NDB name  Hdg/Dist  Freq  Var  ID
HUNTSVILLE293/21.330806EUTS ..- - ...

Airport Services

Fuel available: 100LL JET-A
Parking: tiedowns
Airframe service: NONE
Powerplant service: NONE
Bottled oxygen: NONE
Bulk oxygen: NONE

Runway Information

Runway 18/36

Dimensions: 3202 x 50 ft. / 976 x 15 m
Surface: asphalt, in fair condition
Weight bearing capacity: 
Single wheel: 4.0
Runway edge lights: medium intensity
Operational restrictions: RWY MARKINGS FADED.
RUNWAY 18  RUNWAY 36
Latitude: 30-55.030167N30-54.510183N
Longitude: 095-57.066033W095-57.173250W
Elevation: 286.7 ft.260.2 ft.
Traffic pattern: leftleft
Runway heading: 183 magnetic, 190 true003 magnetic, 010 true
Markings: nonprecision, in poor conditionnonprecision, in poor condition
Touchdown point: yes, no lightsyes, no lights
Obstructions: 61 ft. trees, 201 ft. from runway, 190 ft. left and right of centerline
50 FT TREES 180 FT R & 190 FT L, 0-199 FT DSTC.
50 ft. trees, 201 ft. from runway, 190 ft. left of centerline
+50 FT TREES 180 FT L & 200 FT R, 0-199 FT DSTC.

Airport Ownership and Management from official FAA records

Ownership: Publicly-owned
Owner: CITY OF MADISONVILLE
210 W. COTTONWOOD
MADISONVILLE, TX 77864
Phone 936-348-2748
Manager: CAMILLA VIATOR
210 W. COTTONWOOD
MADISONVILLE, TX 77864
Phone 936-348-2748

Airport Operational Statistics

Aircraft based on the field: 3
Single engine airplanes: 3
    
Aircraft operations: avg 57/week *
67% local general aviation
33% transient general aviation
* for 12-month period ending 31 December 2018

Additional Remarks

AIRPORT GATE LOCKED FROM 2200-0600 CALL 936-348-2748.
SELF SERVICE AVBL 24/7.
SKYDIVING ACTIVITY.
FOR CD CTC HOUSTON ARTCC AT 281-230-5622.

Instrument Procedures

NOTE: All procedures below are presented as PDF files. If you need a reader for these files, you should download the free Adobe Reader.

NOT FOR NAVIGATION. Please procure official charts for flight.
FAA instrument procedures published for use from 09 September 2021 at 0901Z to 07 October 2021 at 0900Z.

 
IAPs - Instrument Approach Procedures
RNAV (GPS) RWY 18   download (148KB)
RNAV (GPS) RWY 36   download (158KB)
VOR/DME RWY 18   download (163KB)
NOTE: Special Take-Off Minimums/Departure Procedures apply   download (70KB)

Other nearby airports with instrument procedures:

KUTS - Huntsville Municipal Airport (21 nm SE)
KCFD - Coulter Field Airport (23 nm SW)
KCLL - Easterwood Field Airport (29 nm SW)
60R - Navasota Municipal Airport (34 nm S)
KLHB - Hearne Municipal Airport (35 nm W)
 
Loc | Ops | Rwys | IFR | FBO | Links
Com | Nav | Svcs | Stats | Notes
Area around 51R (Madisonville Municipal Airport)
 
Road maps at: MapQuest Bing Google
 
Aerial photo
WARNING: Photo may not be current or correct
Aerial photo of 51R (Madisonville Municipal Airport)
Do you have a better or more recent aerial photo of Madisonville Municipal Airport that you would like to share? If so, please send us your photo.

 
Sectional chart

 
Airport distance calculator
Flying to Madisonville Municipal Airport? Find the distance to fly.

From to 51R

Sunrise and sunset
Times for 20-Sep-2021
 Local
(UTC-5)
 Zulu
(UTC)
Morning civil twilight06:4811:48
Sunrise07:1212:12
Sunset19:2300:23
Evening civil twilight19:4700:47

Current date and time
Zulu (UTC)  20-Sep-2021 13:37:02
Local (UTC-5)  20-Sep-2021 08:37:02
 
METAR
KUTS 
21nm SE 
201315Z AUTO 20006KT 10SM BKN010 BKN016 26/23 A2991 RMK AO2 T02560233
KCFD 
23nm SW 
201315Z AUTO 20006KT 10SM BKN008 OVC015 25/25 A2991 RMK AO2 T02500248
KCLL 
29nm SW 
201253Z 19006KT 7SM OVC011 25/23 A2989 RMK AO2 SLP115 T02500233
KLHB 
35nm W 
201315Z AUTO 15003KT 10SM CLR 25/24 A2990 RMK AO2 T02450235
KDKR 
37nm NE 
201315Z AUTO 00000KT 6SM BR BKN012 BKN016 24/24 A2991 RMK AO2
TAF
KUTS 
21nm SE 
201126Z 2012/2112 19005KT P6SM FEW010 FM202100 16008KT P6SM SCT050 FM210600 20006KT P6SM FEW050 FM211000 19006KT P6SM SCT025
NOTAMs
Click for the latest NOTAMs
NOTAMs are issued by the DoD/FAA and will open in a separate window not controlled by AirNav.

 

 
 

FBO, Fuel Providers, and Aircraft Ground Support

  
 Business Name 
 
 Contact 
 
 Services / Description 
 
Fuel Prices
 
Comments
  
Madisonville Municipal Airport 936-348-2748
no information available

If you are affiliated with Madisonville Municipal Airport and would like to show here your services, contact info, web link, logo, and more, click here
100LL Jet A
SS $4.53 $4.00 
 Updated 22-Jul-2021
 
   write
SS=Self service
Update Fuel Prices
 

Would you like to see your business listed on this page?

 If your business provides an interesting product or service to pilots, flight crews, aircraft, or users of the Madisonville Municipal Airport, you should consider listing it here.  To start the listing process, click on the button below
 
Add a business
 

Other Pages about Madisonville Municipal Airport

Update a link
 
Copyright © AirNav, LLC. All rights reserved. Privacy Policy  Contact